Date String (YYYY-MM-DD hh:mm:ss) UTC,Instrument flags,Ambient pressure (hPa),Sample flow (lpm),Bypass flow (lpm),Sample temperature (°C),Ambient temperature (°C),ASC tube jacket temperature (°C),LED temperature (°C),Box temperature (°C),Sample RH (%),Span deviation,Mass concentration (μg/m³),Mass concentration (μg/m³),Mass concentration (μg/m³)
DateTimeUTC,F1_M11,P_M11,Q1_M11,Q2_M11,T1_M11,T2_M11,T3_M11,T4_M11,T5_M11,U1_M11,ZSPAN_M11,X0_M11,X2_M11,X1_M11
2023-02-05 17:00:00,,0824.1,5.02,0.00,22.6,21.2,00.0,31.4,24.4,13.4,0000.0,0011.52,0007.27,0006.67
2023-02-05 17:01:00,,0824.1,4.95,0.00,22.6,21.2,00.0,31.4,24.4,13.2,0000.0,0011.43,0007.18,0006.57
2023-02-05 17:02:00,,0824.1,5.04,0.00,22.6,21.2,00.0,31.4,24.4,13.2,0000.0,0011.44,0007.10,0006.48
2023-02-05 17:03:00,,0824.1,5.00,0.00,22.6,21.2,00.0,31.4,24.4,13.1,0000.0,0011.33,0006.98,0006.37
2023-02-05 17:04:00,,0824.1,4.97,0.00,22.6,21.2,00.0,31.4,24.4,13.1,0000.0,0011.29,0006.87,0006.27
2023-02-05 17:05:00,,0824.1,5.03,0.00,22.6,21.3,00.0,31.4,24.4,13.2,0000.0,0011.73,0006.77,0006.21
2023-02-05 17:06:00,,0824.1,4.95,0.00,22.6,21.3,00.0,31.4,24.4,13.2,0000.0,0011.50,0006.69,0006.16
2023-02-05 17:07:00,,0824.1,5.02,0.00,22.6,21.3,00.0,31.4,24.4,13.1,0000.0,0012.01,0006.61,0006.11
2023-02-05 17:08:00,,0824.1,5.01,0.00,22.6,21.3,00.0,31.4,24.4,13.2,0000.0,0012.49,0006.60,0006.09
2023-02-05 17:09:00,,0824.1,4.97,0.00,22.6,21.4,00.0,31.4,24.4,13.2,0000.0,0012.43,0006.57,0006.05
2023-02-05 17:10:00,,0824.1,5.03,0.00,22.6,21.4,00.0,31.4,24.4,13.5,0000.0,0012.57,0006.54,0006.03
2023-02-05 17:11:00,,0824.0,4.96,0.00,22.6,21.4,00.0,31.4,24.4,13.5,0000.0,0012.85,0006.56,0006.05
2023-02-05 17:12:00,,0824.0,5.01,0.00,22.6,21.4,00.0,31.4,24.4,13.5,0000.0,0013.02,0006.59,0006.06
2023-02-05 17:13:00,,0824.0,5.02,0.00,22.6,21.4,00.0,31.4,24.5,13.3,0000.0,0012.93,0006.60,0006.09
2023-02-05 17:14:00,,0824.0,4.97,0.00,22.6,21.4,00.0,31.4,24.5,13.2,0000.0,0012.98,0006.65,0006.13
2023-02-05 17:15:00,,0824.0,5.00,0.00,22.6,21.4,00.0,31.4,24.5,13.4,0000.0,0012.90,0006.67,0006.16
2023-02-05 17:16:00,,0824.0,5.05,0.00,22.6,21.4,00.0,31.4,24.5,13.3,0000.0,0012.33,0006.72,0006.19
2023-02-05 17:17:00,,0824.0,4.96,0.00,22.6,21.4,00.0,31.4,24.5,13.2,0000.0,0012.17,0006.72,0006.22
2023-02-05 17:18:00,,0824.0,5.01,0.00,22.6,21.4,00.0,31.4,24.5,13.3,0000.0,0011.60,0006.75,0006.24
2023-02-05 17:19:00,,0824.1,5.00,0.00,22.7,21.4,00.0,31.4,24.5,13.2,0000.0,0010.53,0006.74,0006.26
2023-02-05 17:20:00,,0824.1,4.96,0.00,22.7,21.5,00.0,31.4,24.5,13.2,0000.0,0011.34,0006.76,0006.29
2023-02-05 17:21:00,,0824.1,5.03,0.00,22.7,21.5,00.0,31.5,24.5,13.4,0000.0,0011.18,0006.79,0006.31
2023-02-05 17:22:00,,0824.1,4.97,0.00,22.7,21.5,00.0,31.5,24.6,13.2,0000.0,0010.88,0006.77,0006.32
2023-02-05 17:23:00,,0824.1,5.00,0.00,22.7,21.5,00.0,31.5,24.6,13.3,0000.0,0011.01,0006.76,0006.33
2023-02-05 17:24:00,,0824.2,5.03,0.00,22.7,21.6,00.0,31.5,24.6,13.3,0000.0,0011.43,0006.76,0006.33
2023-02-05 17:25:00,,0824.1,4.94,0.00,22.7,21.6,00.0,31.5,24.6,13.4,0000.0,0011.47,0006.75,0006.33
2023-02-05 17:26:00,,0824.1,5.04,0.00,22.7,21.5,00.0,31.5,24.6,13.3,0000.0,0011.57,0006.82,0006.39
2023-02-05 17:27:00,,0824.1,4.99,0.00,22.7,21.5,00.0,31.5,24.6,13.2,0000.0,0011.59,0006.87,0006.45
2023-02-05 17:28:00,,0824.0,4.98,0.00,22.7,21.5,00.0,31.5,24.6,13.2,0000.0,0011.81,0006.97,0006.52
2023-02-05 17:29:00,,0824.0,5.03,0.00,22.7,21.6,00.0,31.5,24.6,13.3,0000.0,0011.90,0007.06,0006.58
2023-02-05 17:30:00,,0824.1,4.99,0.00,22.7,21.6,00.0,31.5,24.6,13.5,0000.0,0012.08,0007.12,0006.63
2023-02-05 17:31:00,,0824.1,4.99,0.00,22.7,21.6,00.0,31.5,24.6,13.3,0000.0,0011.69,0007.19,0006.67
2023-02-05 17:32:00,,0824.1,5.04,0.00,22.8,21.6,00.0,31.5,24.6,13.3,0000.0,0011.74,0007.22,0006.69
2023-02-05 17:33:00,,0824.2,4.97,0.00,22.8,21.6,00.0,31.5,24.7,13.4,0000.0,0011.81,0007.24,0006.70
2023-02-05 17:34:00,,0824.1,5.01,0.00,22.8,21.6,00.0,31.5,24.6,13.5,0000.0,0011.60,0007.27,0006.71
2023-02-05 17:35:00,,0824.0,5.04,0.00,22.8,21.7,00.0,31.5,24.6,13.6,0000.0,0011.47,0007.29,0006.73
2023-02-05 17:36:00,,0824.0,4.95,0.00,22.8,21.7,00.0,31.6,24.6,13.3,0000.0,0011.48,0007.31,0006.72
2023-02-05 17:37:00,,0823.9,5.00,0.00,22.8,21.7,00.0,31.6,24.6,13.3,0000.0,0011.42,0007.28,0006.68
2023-02-05 17:38:00,,0823.9,5.03,0.00,22.8,21.7,00.0,31.6,24.7,13.3,0000.0,0011.41,0007.24,0006.63
2023-02-05 17:39:00,,0823.9,4.98,0.00,22.9,21.7,00.0,31.6,24.7,13.5,0000.0,0011.32,0007.14,0006.57
2023-02-05 17:40:00,,0823.9,4.99,0.00,22.9,21.8,00.0,31.6,24.8,13.6,0000.0,0011.54,0007.07,0006.51
2023-02-05 17:41:00,,0823.9,5.02,0.00,22.9,21.8,00.0,31.6,24.8,13.7,0000.0,0012.31,0007.00,0006.46
2023-02-05 17:42:00,,0824.0,4.95,0.00,22.9,21.8,00.0,31.6,24.8,13.4,0000.0,0012.18,0006.92,0006.41
2023-02-05 17:43:00,,0824.0,5.02,0.00,22.9,21.8,00.0,31.6,24.7,13.7,0000.0,0012.09,0006.87,0006.37
2023-02-05 17:44:00,,0823.9,5.03,0.00,22.9,21.8,00.0,31.7,24.7,13.7,0000.0,0012.05,0006.84,0006.36
2023-02-05 17:45:00,,0823.9,4.95,0.00,22.9,21.8,00.0,31.7,24.8,13.5,0000.0,0012.03,0006.83,0006.34
2023-02-05 17:46:00,,0824.0,5.02,0.00,22.9,21.8,00.0,31.7,24.8,13.5,0000.0,0011.83,0006.82,0006.32
2023-02-05 17:47:00,,0824.0,5.03,0.00,22.9,21.8,00.0,31.7,24.8,13.5,0000.0,0011.76,0006.81,0006.29
2023-02-05 17:48:00,,0824.0,4.95,0.00,23.0,21.9,00.0,31.7,24.8,13.6,0000.0,0012.13,0006.79,0006.27
2023-02-05 17:49:00,,0824.0,5.02,0.00,23.0,21.9,00.0,31.7,24.8,13.7,0000.0,0012.14,0006.79,0006.25
2023-02-05 17:50:00,,0824.0,5.03,0.00,23.0,21.9,00.0,31.7,24.8,13.7,0000.0,0012.39,0006.80,0006.23
2023-02-05 17:51:00,,0824.0,4.98,0.00,23.0,21.9,00.0,31.7,24.8,13.5,0000.0,0012.25,0006.83,0006.22
2023-02-05 17:52:00,,0824.0,5.05,0.00,23.0,21.9,00.0,31.8,24.8,13.5,0000.0,0011.40,0006.87,0006.19
2023-02-05 17:53:00,,0823.8,4.98,0.00,23.0,22.0,00.0,31.8,24.8,13.6,0000.0,0011.33,0006.89,0006.17
2023-02-05 17:54:00,,0823.8,4.96,0.00,23.1,22.0,00.0,31.8,24.9,13.9,0000.0,0011.37,0006.89,0006.15
2023-02-05 17:55:00,,0823.8,5.04,0.00,23.1,22.0,00.0,31.8,24.9,13.9,0000.0,0011.33,0006.88,0006.12
2023-02-05 17:56:00,,0823.8,5.01,0.00,23.1,22.0,00.0,31.8,24.9,14.1,0000.0,0011.34,0006.85,0006.06
2023-02-05 17:57:00,,0823.8,4.95,0.00,23.1,22.1,00.0,31.8,24.9,14.0,0000.0,0011.24,0006.76,0005.98
2023-02-05 17:58:00,,0823.7,5.02,0.00,23.1,22.1,00.0,31.9,24.9,13.7,0000.0,0011.91,0006.68,0005.90
2023-02-05 17:59:00,,0823.7,5.03,0.00,23.2,22.1,00.0,31.9,24.9,13.6,0000.0,0011.61,0006.60,0005.82
